Regional Weather Roundup
Issued by NWS Green Bay, WI

Home | Current Version | Previous Version | Graphics & Text | Print | Product List | Glossary Off
Versions: 1 2 3 4 5 6 7 8 9 10 11 12 13 14 15 16 17 18 19 20 21 22 23 24 25 26 27 28 29 30 31 32 33 34 35 36 37 38 39 40 41 42 43 44 45 46 47 48 49 50

370
ASUS43 KGRB 110911
RWRGRB

NORTH-CENTRAL AND NORTHEAST WISCONSIN REGIONAL WEATHER ROUNDUP
NATIONAL WEATHER SERVICE GREEN BAY WI
300 AM CST THU FEB 11 2016

WIZ005-009-010>012-018-019-111000-
NORTH CENTRAL WISCONSIN

CITY           SKY/WX    TMP DP  RH WIND       PRES   REMARKS
IRONWOOD       CLOUDY     5   3  92 W10       30.15R WCI -10
MANITOWISH WTR CLOUDY     4   0  82 NW7       30.12R WCI  -8
ARBOR VITAE    CLOUDY     4   0  81 NW3       30.12S
EAGLE RIVER    CLOUDY     2  -3  79 W5        30.10R WCI  -7
LAND O LAKES   FLURRIES   7   2  82 N8        30.10S WCI  -6
RHINELANDER    MOCLDY     0  -5  79 W9        30.12R WCI -15
PHILLIPS       CLOUDY   -14 -18  82 CALM      30.16S
ANTIGO         CLEAR     -2  -6  82 W9        30.13R WCI -18
TOMAHAWK       MOCLDY    -1  -4  84 W5        30.16R WCI -11
MERRILL        PTCLDY    -3  -7  84 CALM      30.17S
$$

WIZ013-073-111000-
NORTHEAST WISCONSIN

CITY           SKY/WX    TMP DP  RH WIND       PRES   REMARKS
IRON MOUNTAIN  PTCLDY     6  -3  66 NW9       30.11R WCI  -8
MARINETTE      CLEAR      3  -4  72 W5        30.16R WCI  -6
OCONTO         CLEAR     -2  -7  76 W7        30.19R WCI -15
$$

WIZ017-030-035>037-045-111000-
CENTRAL WISCONSIN

CITY           SKY/WX    TMP DP  RH WIND       PRES   REMARKS
MEDFORD        CLOUDY    -8 -11  87 NW3       30.17R
WAUSAU         CLEAR      0  -6  76 NW8       30.17R WCI -14
MOSINEE        CLEAR      0  -4  85 CALM      30.18R
MARSHFIELD     PTCLDY    -4 -10  75 CALM      30.18R
WISC RAPIDS    PTCLDY    -3  -9  75 NW6       30.23R WCI -15
STEVENS POINT  PTCLDY    -2  -7  80 CALM      30.20R
WAUPACA        CLEAR      3  -5  70 W6        30.22R WCI  -8
SHAWANO        PTCLDY     3  -4  71 W6        30.20R WCI  -8
CLINTONVILLE   CLEAR      1  -6  71 W5        30.19S WCI  -8
WAUTOMA        CLEAR     -4  -9  79 NW5       30.24R WCI -15
$$

WIZ038-039-048-051-111000-
FOX VALLEY

CITY           SKY/WX    TMP DP  RH WIND       PRES   REMARKS
NWS GREEN BAY  MOCLDY    -1  -7  75 W7        30.19R WCI -14
APPLETON       CLEAR      0  -9  65 W10       30.17R WCI -17
OSHKOSH        PTCLDY     1  -7  68 W7        30.19S WCI -12
FOND DU LAC    PTCLDY     2  -6  69 W9        30.20R WCI -13
$$

WIZ022-050-052-111000-
EAST CENTRAL WISCONSIN

CITY           SKY/WX    TMP DP  RH WIND       PRES   REMARKS
EPHRAIM        FAIR       8   0  69 NW8       30.13R WCI  -5
STURGEON BAY   CLEAR      3  -6  66 W8        30.17R WCI -10
MANITOWOC      CLEAR      3  -5  69 W9        30.19R WCI -12
SHEBOYGAN      CLEAR      3  -6  66 W9        30.18R WCI -12
$$

LMZ563-521-522-541>543-111000-
LAKESHORE

STATION/POSITION TIME  TEMP    WIND        PRES    VSBY  WAVE
                       AIR SEA DIR/SP/G                  HT/PER
                 (UTC) (F)     (DEG/KT/KT) (MB)    (MI)  (FT/S)
SHEBOYGAN LKSHOR 0900    6     290/ 11/ 14 1023.9R
KEWAUNEE LKSHORE 0800    4     300/  6/  8 1020.4R
ALGOMA MARINA    0811          310/  2/  5   N/A
CHAMBERS ISLAND  0800    8     290/  8/ 14 1020.7R
MENOMINEE LKSHOR 0800    6     280/  8     1020.1R
$$




USA.gov is the U.S. government's official web portal to all federal, state and local government web resources and services.